START_TIME,STEP,MOV.,A39,t_acc.,A33,t_acc.,P32,t_acc.,P31,t_acc.
1979-03-10 09:14:24.420 ,0,0,,0,,0,,0,,0
1979-03-10 09:14:25.220 ,0,0,,0,,0,,0,,0
1979-03-10 09:14:26.020 ,0,0,,0,,0,,0,,0
1979-03-10 09:14:26.820 ,0,0,,0,,0,,0,,0
1979-03-10 09:14:27.620 ,0,0,,0,,0,,0,,0
1979-03-10 09:14:28.420 ,0,0,5.,0.8,0.,0.8,0.,0.8,21.,0.8
1979-03-10 09:14:29.220 ,0,0,2.,0.8,0.,0.8,0.,0.8,20.,0.8
1979-03-10 09:14:30.020 ,0,0,3.,0.8,0.,0.8,0.,0.8,14.,0.8
1979-03-10 09:14:30.820 ,0,0,4.,0.8,0.,0.8,0.,0.8,28.,0.8
1979-03-10 09:14:31.620 ,0,0,2.,0.8,0.,0.8,0.,0.8,29.,0.8
1979-03-10 09:14:32.420 ,0,0,3.,0.8,0.,0.8,0.,0.8,25.,0.8
1979-03-10 09:14:33.220 ,0,0,2.,0.8,0.,0.8,0.,0.8,27.,0.8
1979-03-10 09:14:34.020 ,0,0,3.,0.8,0.,0.8,0.,0.8,32.,0.8
1979-03-10 09:14:34.820 ,0,0,3.,0.8,0.,0.8,0.,0.8,20.,0.8
1979-03-10 09:14:35.620 ,0,0,4.,0.8,0.,0.8,0.,0.8,27.,0.8
1979-03-10 09:14:36.420 ,0,0,5.,0.8,0.,0.8,0.,0.8,15.,0.8
1979-03-10 09:14:37.220 ,0,0,4.,0.8,0.,0.8,0.,0.8,24.,0.8
1979-03-10 09:14:38.020 ,0,0,4.,0.8,0.,0.8,0.,0.8,25.,0.8
1979-03-10 09:14:38.820 ,0,0,5.,0.8,0.,0.8,1.,0.8,27.,0.8
1979-03-10 09:14:39.620 ,0,0,1.,0.8,0.,0.8,0.,0.8,27.,0.8
1979-03-10 09:14:40.420 ,0,0,3.,0.8,0.,0.8,0.,0.8,32.,0.8
1979-03-10 09:14:41.220 ,0,0,3.,0.8,0.,0.8,0.,0.8,28.,0.8
1979-03-10 09:14:42.020 ,0,0,5.,0.8,0.,0.8,0.,0.8,21.,0.8
1979-03-10 09:14:42.820 ,0,0,6.,0.8,0.,0.8,0.,0.8,21.,0.8
1979-03-10 09:14:43.620 ,0,0,0.,0.8,0.,0.8,0.,0.8,24.,0.8
1979-03-10 09:14:44.420 ,0,0,2.,0.8,0.,0.8,0.,0.8,19.,0.8
1979-03-10 09:14:45.220 ,0,0,2.,0.8,0.,0.8,0.,0.8,26.,0.8
1979-03-10 09:14:46.020 ,0,0,3.,0.8,0.,0.8,0.,0.8,18.,0.8
1979-03-10 09:14:46.820 ,0,0,1.,0.8,0.,0.8,0.,0.8,12.,0.8
1979-03-10 09:14:47.620 ,0,0,2.,0.8,0.,0.8,0.,0.8,16.,0.8
1979-03-10 09:14:44.220 ,5,0,4.,0.8,0.,0.8,0.,0.8,23.,0.8
1979-03-10 09:14:45.020 ,5,0,4.,0.8,0.,0.8,0.,0.8,27.,0.8
1979-03-10 09:14:45.820 ,5,0,4.,0.8,0.,0.8,0.,0.8,14.,0.8
1979-03-10 09:14:46.620 ,5,0,4.,0.8,0.,0.8,0.,0.8,22.,0.8
1979-03-10 09:14:47.420 ,5,0,4.,0.8,0.,0.8,0.,0.8,28.,0.8
1979-03-10 09:14:48.220 ,5,0,3.,0.8,0.,0.8,0.,0.8,25.,0.8
1979-03-10 09:14:49.020 ,5,0,2.,0.8,0.,0.8,0.,0.8,18.,0.8
1979-03-10 09:14:49.820 ,5,0,2.,0.8,0.,0.8,0.,0.8,17.,0.8
1979-03-10 09:14:50.620 ,5,0,2.,0.8,0.,0.8,0.,0.8,20.,0.8
1979-03-10 09:14:51.420 ,5,0,1.,0.8,0.,0.8,0.,0.8,17.,0.8
1979-03-10 09:14:52.220 ,5,0,0.,0.8,0.,0.8,0.,0.8,30.,0.8
1979-03-10 09:14:53.020 ,5,0,2.,0.8,0.,0.8,0.,0.8,22.,0.8
1979-03-10 09:14:53.820 ,5,0,4.,0.8,0.,0.8,0.,0.8,19.,0.8
1979-03-10 09:14:54.620 ,5,0,3.,0.8,0.,0.8,0.,0.8,26.,0.8
1979-03-10 09:14:55.420 ,5,0,3.,0.8,0.,0.8,0.,0.8,16.,0.8
1979-03-10 09:14:56.220 ,5,0,2.,0.8,0.,0.8,0.,0.8,16.,0.8
1979-03-10 09:14:57.020 ,5,0,4.,0.8,0.,0.8,0.,0.8,28.,0.8
1979-03-10 09:14:57.820 ,5,0,2.,0.8,0.,0.8,0.,0.8,29.,0.8
1979-03-10 09:14:58.620 ,5,0,1.,0.8,0.,0.8,0.,0.8,14.,0.8
1979-03-10 09:14:59.420 ,5,0,2.,0.8,0.,0.8,0.,0.8,25.,0.8
1979-03-10 09:15:00.220 ,5,0,4.,0.8,0.,0.8,0.,0.8,23.,0.8
1979-03-10 09:15:01.020 ,5,0,3.,0.8,0.,0.8,0.,0.8,24.,0.8
1979-03-10 09:15:01.820 ,5,0,1.,0.8,0.,0.8,0.,0.8,24.,0.8
1979-03-10 09:15:02.620 ,5,0,3.,0.8,0.,0.8,0.,0.8,25.,0.8
1979-03-10 09:15:03.420 ,5,0,4.,0.8,0.,0.8,0.,0.8,16.,0.8
1979-03-10 09:15:04.220 ,5,0,3.,0.8,0.,0.8,0.,0.8,24.,0.8
1979-03-10 09:15:05.020 ,5,0,4.,0.8,0.,0.8,0.,0.8,25.,0.8
1979-03-10 09:15:05.820 ,5,0,3.,0.8,0.,0.8,0.,0.8,30.,0.8
1979-03-10 09:15:06.620 ,5,0,2.,0.8,0.,0.8,0.,0.8,18.,0.8
1979-03-10 09:15:07.420 ,5,0,2.,0.8,0.,0.8,0.,0.8,24.,0.8
1979-03-10 09:15:08.220 ,6,0,4.,0.8,0.,0.8,0.,0.8,38.,0.8
1979-03-10 09:15:09.020 ,6,0,3.,0.8,0.,0.8,0.,0.8,27.,0.8
1979-03-10 09:15:09.820 ,6,0,3.,0.8,0.,0.8,0.,0.8,30.,0.8
1979-03-10 09:15:10.620 ,6,0,3.,0.8,0.,0.8,0.,0.8,24.,0.8
1979-03-10 09:15:11.420 ,6,0,2.,0.8,0.,0.8,0.,0.8,21.,0.8
1979-03-10 09:15:12.220 ,6,0,2.,0.8,0.,0.8,0.,0.8,29.,0.8
1979-03-10 09:15:13.020 ,6,0,3.,0.8,0.,0.8,0.,0.8,25.,0.8
1979-03-10 09:15:13.820 ,6,0,4.,0.8,0.,0.8,0.,0.8,17.,0.8
1979-03-10 09:15:14.620 ,6,0,2.,0.8,0.,0.8,0.,0.8,21.,0.8
1979-03-10 09:15:15.420 ,6,0,2.,0.8,0.,0.8,0.,0.8,17.,0.8
1979-03-10 09:15:16.220 ,6,0,3.,0.8,0.,0.8,0.,0.8,32.,0.8
1979-03-10 09:15:17.020 ,6,0,3.,0.8,0.,0.8,0.,0.8,19.,0.8
1979-03-10 09:15:17.820 ,6,0,1.,0.8,0.,0.8,0.,0.8,24.,0.8
1979-03-10 09:15:18.620 ,6,0,2.,0.8,0.,0.8,0.,0.8,24.,0.8
1979-03-10 09:15:19.420 ,6,0,1.,0.8,0.,0.8,0.,0.8,22.,0.8
1979-03-10 09:15:20.220 ,6,0,2.,0.8,0.,0.8,0.,0.8,28.,0.8
1979-03-10 09:15:21.020 ,6,0,1.,0.8,0.,0.8,0.,0.8,30.,0.8
1979-03-10 09:15:21.820 ,6,0,2.,0.8,0.,0.8,0.,0.8,18.,0.8
1979-03-10 09:15:22.620 ,6,0,2.,0.8,0.,0.8,0.,0.8,32.,0.8
1979-03-10 09:15:23.420 ,6,0,4.,0.8,0.,0.8,0.,0.8,23.,0.8
1979-03-10 09:15:24.220 ,6,0,2.,0.8,0.,0.8,0.,0.8,28.,0.8
1979-03-10 09:15:25.020 ,6,0,1.,0.8,0.,0.8,0.,0.8,22.,0.8
1979-03-10 09:15:25.820 ,6,0,3.,0.8,0.,0.8,0.,0.8,29.,0.8
1979-03-10 09:15:26.620 ,6,0,3.,0.8,0.,0.8,0.,0.8,31.,0.8
1979-03-10 09:15:27.420 ,6,0,1.,0.8,0.,0.8,0.,0.8,19.,0.8
1979-03-10 09:15:28.220 ,6,0,4.,0.8,0.,0.8,0.,0.8,23.,0.8
1979-03-10 09:15:29.020 ,6,0,3.,0.8,0.,0.8,0.,0.8,23.,0.8
1979-03-10 09:15:29.820 ,6,0,3.,0.8,0.,0.8,0.,0.8,27.,0.8
1979-03-10 09:15:30.620 ,6,0,2.,0.8,0.,0.8,0.,0.8,29.,0.8
1979-03-10 09:15:31.420 ,6,0,3.,0.8,0.,0.8,0.,0.8,15.,0.8
1979-03-10 09:15:32.220 ,7,0,2.,0.8,0.,0.8,0.,0.8,24.,0.8
1979-03-10 09:15:33.020 ,7,0,3.,0.8,0.,0.8,0.,0.8,23.,0.8
1979-03-10 09:15:33.820 ,7,0,2.,0.8,0.,0.8,0.,0.8,29.,0.8
1979-03-10 09:15:34.620 ,7,0,2.,0.8,0.,0.8,0.,0.8,34.,0.8
1979-03-10 09:15:35.420 ,7,0,2.,0.8,0.,0.8,0.,0.8,27.,0.8
1979-03-10 09:15:36.220 ,7,0,3.,0.8,0.,0.8,0.,0.8,15.,0.8
1979-03-10 09:15:37.020 ,7,0,1.,0.8,0.,0.8,0.,0.8,18.,0.8
1979-03-10 09:15:37.820 ,7,0,3.,0.8,0.,0.8,0.,0.8,21.,0.8
1979-03-10 09:15:38.620 ,7,0,1.,0.8,0.,0.8,0.,0.8,24.,0.8
1979-03-10 09:15:39.420 ,7,0,2.,0.8,0.,0.8,0.,0.8,15.,0.8
1979-03-10 09:15:40.220 ,7,0,2.,0.8,0.,0.8,0.,0.8,24.,0.8
1979-03-10 09:15:41.020 ,7,0,3.,0.8,0.,0.8,0.,0.8,22.,0.8
1979-03-10 09:15:41.820 ,7,0,4.,0.8,0.,0.8,0.,0.8,23.,0.8
1979-03-10 09:15:42.620 ,7,0,1.,0.8,0.,0.8,0.,0.8,22.,0.8
1979-03-10 09:15:43.420 ,7,0,2.,0.8,0.,0.8,0.,0.8,13.,0.8
1979-03-10 09:15:44.220 ,7,0,2.,0.8,0.,0.8,0.,0.8,30.,0.8
1979-03-10 09:15:45.020 ,7,0,0.,0.8,0.,0.8,0.,0.8,22.,0.8
1979-03-10 09:15:45.820 ,7,0,4.,0.8,0.,0.8,0.,0.8,17.,0.8
1979-03-10 09:15:46.620 ,7,0,3.,0.8,0.,0.8,0.,0.8,18.,0.8
1979-03-10 09:15:47.420 ,7,0,2.,0.8,0.,0.8,0.,0.8,18.,0.8
1979-03-10 09:15:48.220 ,7,0,3.,0.8,0.,0.8,0.,0.8,26.,0.8
1979-03-10 09:15:49.020 ,7,0,2.,0.8,0.,0.8,0.,0.8,28.,0.8
1979-03-10 09:15:49.820 ,7,0,2.,0.8,0.,0.8,0.,0.8,23.,0.8
1979-03-10 09:15:50.620 ,7,0,0.,0.8,0.,0.8,0.,0.8,27.,0.8
1979-03-10 09:15:51.420 ,7,0,2.,0.8,0.,0.8,0.,0.8,23.,0.8
1979-03-10 09:15:52.220 ,7,0,2.,0.8,0.,0.8,0.,0.8,23.,0.8
1979-03-10 09:15:53.020 ,7,0,2.,0.8,0.,0.8,0.,0.8,16.,0.8
1979-03-10 09:15:53.820 ,7,0,2.,0.8,0.,0.8,0.,0.8,25.,0.8
1979-03-10 09:15:54.620 ,7,0,0.,0.8,0.,0.8,0.,0.8,27.,0.8
1979-03-10 09:15:55.420 ,7,0,2.,0.8,0.,0.8,0.,0.8,24.,0.8
1979-03-10 09:15:56.220 ,6,0,4.,0.8,0.,0.8,0.,0.8,15.,0.8
1979-03-10 09:15:57.020 ,6,0,3.,0.8,0.,0.8,0.,0.8,29.,0.8
1979-03-10 09:15:57.820 ,6,0,3.,0.8,0.,0.8,0.,0.8,19.,0.8
1979-03-10 09:15:58.620 ,6,0,2.,0.8,0.,0.8,0.,0.8,20.,0.8
1979-03-10 09:15:59.420 ,6,0,1.,0.8,0.,0.8,0.,0.8,21.,0.8
1979-03-10 09:16:00.220 ,6,0,2.,0.8,0.,0.8,0.,0.8,18.,0.8
1979-03-10 09:16:01.020 ,6,0,3.,0.8,0.,0.8,0.,0.8,33.,0.8
1979-03-10 09:16:01.820 ,6,0,0.,0.8,0.,0.8,0.,0.8,23.,0.8
1979-03-10 09:16:02.620 ,6,0,2.,0.8,0.,0.8,0.,0.8,27.,0.8
1979-03-10 09:16:03.420 ,6,0,1.,0.8,0.,0.8,0.,0.8,20.,0.8
1979-03-10 09:16:04.220 ,6,0,2.,0.8,0.,0.8,0.,0.8,20.,0.8
1979-03-10 09:16:05.020 ,6,0,1.,0.8,0.,0.8,0.,0.8,30.,0.8
1979-03-10 09:16:05.820 ,6,0,2.,0.8,0.,0.8,0.,0.8,27.,0.8
1979-03-10 09:16:06.620 ,6,0,0.,0.8,0.,0.8,0.,0.8,32.,0.8
1979-03-10 09:16:07.420 ,6,0,0.,0.8,0.,0.8,1.,0.8,21.,0.8
1979-03-10 09:16:08.220 ,6,0,2.,0.8,0.,0.8,0.,0.8,9.,0.8
1979-03-10 09:16:09.020 ,6,0,1.,0.8,0.,0.8,0.,0.8,17.,0.8
1979-03-10 09:16:09.820 ,6,0,1.,0.8,0.,0.8,0.,0.8,20.,0.8
1979-03-10 09:16:10.620 ,6,0,1.,0.8,0.,0.8,0.,0.8,16.,0.8
1979-03-10 09:16:11.420 ,6,0,1.,0.8,0.,0.8,0.,0.8,27.,0.8
1979-03-10 09:16:12.220 ,6,0,2.,0.8,0.,0.8,0.,0.8,25.,0.8
1979-03-10 09:16:13.020 ,6,0,1.,0.8,0.,0.8,0.,0.8,21.,0.8
1979-03-10 09:16:13.820 ,6,0,2.,0.8,0.,0.8,0.,0.8,25.,0.8
1979-03-10 09:16:14.620 ,6,0,1.,0.8,0.,0.8,0.,0.8,13.,0.8
1979-03-10 09:16:15.420 ,6,0,2.,0.8,0.,0.8,0.,0.8,27.,0.8
1979-03-10 09:16:16.220 ,6,0,0.,0.8,0.,0.8,0.,0.8,34.,0.8
1979-03-10 09:16:17.020 ,6,0,1.,0.8,0.,0.8,0.,0.8,21.,0.8
1979-03-10 09:16:17.820 ,6,0,2.,0.8,0.,0.8,0.,0.8,23.,0.8
1979-03-10 09:16:18.620 ,6,0,2.,0.8,0.,0.8,0.,0.8,20.,0.8
1979-03-10 09:16:19.420 ,6,0,2.,0.8,0.,0.8,0.,0.8,13.,0.8
1979-03-10 09:16:20.220 ,0,0,2.,0.8,0.,0.8,0.,0.8,20.,0.8
1979-03-10 09:16:21.020 ,0,0,2.,0.8,0.,0.8,0.,0.8,16.,0.8
1979-03-10 09:16:21.820 ,0,0,1.,0.8,0.,0.8,0.,0.8,16.,0.8
1979-03-10 09:16:22.620 ,0,0,3.,0.8,0.,0.8,0.,0.8,24.,0.8
1979-03-10 09:16:23.420 ,0,0,2.,0.8,0.,0.8,0.,0.8,19.,0.8
1979-03-10 09:16:24.220 ,0,0,3.,0.8,0.,0.8,0.,0.8,20.,0.8
1979-03-10 09:16:25.020 ,0,0,1.,0.8,0.,0.8,0.,0.8,19.,0.8
1979-03-10 09:16:25.820 ,0,0,3.,0.8,0.,0.8,0.,0.8,24.,0.8
1979-03-10 09:16:26.620 ,0,0,2.,0.8,0.,0.8,0.,0.8,22.,0.8
1979-03-10 09:16:27.420 ,0,0,1.,0.8,0.,0.8,0.,0.8,18.,0.8
1979-03-10 09:16:28.220 ,0,0,2.,0.8,0.,0.8,0.,0.8,23.,0.8
1979-03-10 09:16:29.020 ,0,0,2.,0.8,0.,0.8,0.,0.8,19.,0.8
1979-03-10 09:16:29.820 ,0,0,2.,0.8,0.,0.8,0.,0.8,12.,0.8
1979-03-10 09:16:30.620 ,0,0,3.,0.8,0.,0.8,0.,0.8,23.,0.8
1979-03-10 09:16:31.420 ,0,0,2.,0.8,0.,0.8,0.,0.8,25.,0.8
1979-03-10 09:16:32.220 ,0,0,0.,0.8,0.,0.8,0.,0.8,24.,0.8
1979-03-10 09:16:33.020 ,0,0,1.,0.8,0.,0.8,0.,0.8,30.,0.8
1979-03-10 09:16:33.820 ,0,0,2.,0.8,0.,0.8,0.,0.8,28.,0.8
1979-03-10 09:16:34.620 ,0,0,1.,0.8,0.,0.8,0.,0.8,19.,0.8
1979-03-10 09:16:35.420 ,0,0,2.,0.8,0.,0.8,0.,0.8,23.,0.8
1979-03-10 09:16:36.220 ,0,0,3.,0.8,0.,0.8,0.,0.8,22.,0.8
1979-03-10 09:16:37.020 ,0,0,0.,0.8,0.,0.8,0.,0.8,21.,0.8
1979-03-10 09:16:37.820 ,0,0,1.,0.8,0.,0.8,0.,0.8,20.,0.8
1979-03-10 09:16:38.620 ,0,0,2.,0.8,0.,0.8,0.,0.8,28.,0.8
1979-03-10 09:16:39.420 ,0,0,1.,0.8,0.,0.8,0.,0.8,31.,0.8
1979-03-10 09:16:40.220 ,0,0,3.,0.8,0.,0.8,0.,0.8,31.,0.8
1979-03-10 09:16:41.020 ,0,0,3.,0.8,0.,0.8,0.,0.8,30.,0.8
1979-03-10 09:16:41.820 ,0,0,3.,0.8,0.,0.8,0.,0.8,14.,0.8
1979-03-10 09:16:42.620 ,0,0,0.,0.8,0.,0.8,0.,0.8,19.,0.8
1979-03-10 09:16:43.420 ,0,0,2.,0.8,0.,0.8,0.,0.8,27.,0.8
1979-03-10 09:16:44.220 ,0,0,1.,0.8,0.,0.8,0.,0.8,9.,0.8
1979-03-10 09:16:45.020 ,0,0,2.,0.8,0.,0.8,0.,0.8,22.,0.8
1979-03-10 09:16:45.820 ,0,0,2.,0.8,0.,0.8,0.,0.8,24.,0.8
1979-03-10 09:16:46.620 ,0,0,4.,0.8,0.,0.8,0.,0.8,17.,0.8
1979-03-10 09:16:47.420 ,0,0,1.,0.8,0.,0.8,0.,0.8,28.,0.8
1979-03-10 09:16:48.220 ,0,0,2.,0.8,0.,0.8,0.,0.8,33.,0.8
1979-03-10 09:16:49.020 ,0,0,2.,0.8,0.,0.8,0.,0.8,26.,0.8
1979-03-10 09:16:49.820 ,0,0,3.,0.8,0.,0.8,0.,0.8,23.,0.8
1979-03-10 09:16:50.620 ,0,0,3.,0.8,0.,0.8,0.,0.8,23.,0.8
1979-03-10 09:16:51.420 ,0,0,1.,0.8,0.,0.8,0.,0.8,30.,0.8
1979-03-10 09:16:52.220 ,0,0,3.,0.8,0.,0.8,0.,0.8,23.,0.8
1979-03-10 09:16:53.020 ,0,0,2.,0.8,0.,0.8,0.,0.8,28.,0.8
1979-03-10 09:16:53.820 ,0,0,1.,0.8,0.,0.8,0.,0.8,20.,0.8
1979-03-10 09:16:54.620 ,0,0,2.,0.8,0.,0.8,0.,0.8,26.,0.8
1979-03-10 09:16:55.420 ,0,0,0.,0.8,0.,0.8,0.,0.8,31.,0.8
1979-03-10 09:16:56.220 ,0,0,1.,0.8,0.,0.8,0.,0.8,25.,0.8
1979-03-10 09:16:57.020 ,0,0,1.,0.8,0.,0.8,0.,0.8,26.,0.8
1979-03-10 09:16:57.820 ,0,0,2.,0.8,0.,0.8,0.,0.8,24.,0.8
1979-03-10 09:16:58.620 ,0,0,2.,0.8,0.,0.8,0.,0.8,24.,0.8
1979-03-10 09:16:59.420 ,0,0,2.,0.8,0.,0.8,0.,0.8,17.,0.8
1979-03-10 09:17:00.220 ,0,0,2.,0.8,0.,0.8,1.,0.8,22.,0.8
1979-03-10 09:17:01.020 ,0,0,4.,0.8,0.,0.8,0.,0.8,19.,0.8
1979-03-10 09:17:01.820 ,0,0,1.,0.8,0.,0.8,0.,0.8,24.,0.8
1979-03-10 09:17:02.620 ,0,0,1.,0.8,0.,0.8,0.,0.8,13.,0.8
1979-03-10 09:17:03.420 ,0,0,1.,0.8,0.,0.8,0.,0.8,25.,0.8
1979-03-10 09:17:04.220 ,0,0,2.,0.8,0.,0.8,0.,0.8,15.,0.8
1979-03-10 09:17:05.020 ,0,0,3.,0.8,0.,0.8,0.,0.8,24.,0.8
1979-03-10 09:17:05.820 ,0,0,1.,0.8,0.,0.8,0.,0.8,25.,0.8
1979-03-10 09:17:06.620 ,0,0,1.,0.8,0.,0.8,0.,0.8,21.,0.8
1979-03-10 09:17:07.420 ,0,0,2.,0.8,0.,0.8,0.,0.8,24.,0.8
1979-03-10 09:17:08.220 ,5,0,3.,0.8,0.,0.8,0.,0.8,26.,0.8
1979-03-10 09:17:09.020 ,5,0,3.,0.8,0.,0.8,0.,0.8,22.,0.8
1979-03-10 09:17:09.820 ,5,0,0.,0.8,0.,0.8,0.,0.8,31.,0.8
1979-03-10 09:17:10.620 ,5,0,3.,0.8,0.,0.8,0.,0.8,25.,0.8
1979-03-10 09:17:11.420 ,5,0,3.,0.8,0.,0.8,0.,0.8,18.,0.8
1979-03-10 09:17:12.220 ,5,0,1.,0.8,0.,0.8,0.,0.8,28.,0.8
1979-03-10 09:17:13.020 ,5,0,2.,0.8,0.,0.8,0.,0.8,15.,0.8
1979-03-10 09:17:13.820 ,5,0,4.,0.8,0.,0.8,0.,0.8,25.,0.8
1979-03-10 09:17:14.620 ,5,0,3.,0.8,0.,0.8,0.,0.8,18.,0.8
1979-03-10 09:17:15.420 ,5,0,2.,0.8,0.,0.8,0.,0.8,25.,0.8
1979-03-10 09:17:16.220 ,5,0,4.,0.8,0.,0.8,0.,0.8,20.,0.8
1979-03-10 09:17:17.020 ,5,0,3.,0.8,0.,0.8,0.,0.8,18.,0.8
1979-03-10 09:17:17.820 ,5,0,1.,0.8,0.,0.8,0.,0.8,24.,0.8
1979-03-10 09:17:18.620 ,5,0,1.,0.8,0.,0.8,0.,0.8,12.,0.8
1979-03-10 09:17:19.420 ,5,0,3.,0.8,0.,0.8,0.,0.8,17.,0.8
1979-03-10 09:17:20.220 ,5,0,2.,0.8,0.,0.8,0.,0.8,21.,0.8
1979-03-10 09:17:21.020 ,5,0,2.,0.8,0.,0.8,0.,0.8,25.,0.8
1979-03-10 09:17:21.820 ,5,0,4.,0.8,0.,0.8,0.,0.8,17.,0.8
1979-03-10 09:17:22.620 ,5,0,4.,0.8,0.,0.8,0.,0.8,21.,0.8
1979-03-10 09:17:23.420 ,5,0,3.,0.8,0.,0.8,0.,0.8,31.,0.8
1979-03-10 09:17:24.220 ,5,0,5.,0.8,0.,0.8,0.,0.8,20.,0.8
1979-03-10 09:17:25.020 ,5,0,2.,0.8,0.,0.8,0.,0.8,20.,0.8
1979-03-10 09:17:25.820 ,5,0,5.,0.8,0.,0.8,0.,0.8,23.,0.8
1979-03-10 09:17:26.620 ,5,0,5.,0.8,0.,0.8,0.,0.8,23.,0.8
1979-03-10 09:17:27.420 ,5,0,4.,0.8,0.,0.8,0.,0.8,22.,0.8
1979-03-10 09:17:28.220 ,5,0,3.,0.8,0.,0.8,0.,0.8,20.,0.8
1979-03-10 09:17:29.020 ,5,0,2.,0.8,0.,0.8,0.,0.8,17.,0.8
1979-03-10 09:17:29.820 ,5,0,3.,0.8,0.,0.8,0.,0.8,15.,0.8
1979-03-10 09:17:30.620 ,5,0,2.,0.8,0.,0.8,0.,0.8,18.,0.8
1979-03-10 09:17:31.420 ,5,0,4.,0.8,0.,0.8,0.,0.8,30.,0.8
1979-03-10 09:17:32.220 ,4,0,0.,0.8,0.,0.8,0.,0.8,23.,0.8
1979-03-10 09:17:33.020 ,4,0,2.,0.8,0.,0.8,0.,0.8,24.,0.8
1979-03-10 09:17:33.820 ,4,0,2.,0.8,0.,0.8,0.,0.8,16.,0.8
1979-03-10 09:17:34.620 ,4,0,1.,0.8,0.,0.8,0.,0.8,25.,0.8
1979-03-10 09:17:35.420 ,4,0,4.,0.8,0.,0.8,0.,0.8,17.,0.8
1979-03-10 09:17:36.220 ,4,0,3.,0.8,0.,0.8,0.,0.8,27.,0.8
1979-03-10 09:17:37.020 ,4,0,1.,0.8,0.,0.8,0.,0.8,29.,0.8
1979-03-10 09:17:37.820 ,4,0,3.,0.8,0.,0.8,0.,0.8,14.,0.8
1979-03-10 09:17:38.620 ,4,0,1.,0.8,0.,0.8,0.,0.8,16.,0.8
1979-03-10 09:17:39.420 ,4,0,2.,0.8,0.,0.8,0.,0.8,21.,0.8
1979-03-10 09:17:40.220 ,4,0,1.,0.8,0.,0.8,0.,0.8,24.,0.8
1979-03-10 09:17:41.020 ,4,0,2.,0.8,0.,0.8,0.,0.8,21.,0.8
1979-03-10 09:17:41.820 ,4,0,1.,0.8,0.,0.8,0.,0.8,20.,0.8
1979-03-10 09:17:42.620 ,4,0,2.,0.8,0.,0.8,0.,0.8,14.,0.8
1979-03-10 09:17:43.420 ,4,0,1.,0.8,0.,0.8,0.,0.8,18.,0.8
1979-03-10 09:17:44.220 ,4,0,2.,0.8,0.,0.8,0.,0.8,22.,0.8
1979-03-10 09:17:45.020 ,4,0,2.,0.8,0.,0.8,0.,0.8,25.,0.8
1979-03-10 09:17:45.820 ,4,0,3.,0.8,0.,0.8,0.,0.8,30.,0.8
1979-03-10 09:17:46.620 ,4,0,2.,0.8,0.,0.8,0.,0.8,20.,0.8
1979-03-10 09:17:47.420 ,4,0,1.,0.8,0.,0.8,0.,0.8,23.,0.8
1979-03-10 09:17:48.220 ,4,0,1.,0.8,0.,0.8,0.,0.8,25.,0.8
1979-03-10 09:17:49.020 ,4,0,5.,0.8,0.,0.8,0.,0.8,24.,0.8
1979-03-10 09:17:49.820 ,4,0,2.,0.8,0.,0.8,0.,0.8,17.,0.8
1979-03-10 09:17:50.620 ,4,0,3.,0.8,0.,0.8,0.,0.8,29.,0.8
1979-03-10 09:17:51.420 ,4,0,2.,0.8,0.,0.8,0.,0.8,17.,0.8
1979-03-10 09:17:52.220 ,4,0,2.,0.8,0.,0.8,0.,0.8,21.,0.8
1979-03-10 09:17:53.020 ,4,0,5.,0.8,0.,0.8,0.,0.8,15.,0.8
1979-03-10 09:17:53.820 ,4,0,2.,0.8,0.,0.8,0.,0.8,17.,0.8
1979-03-10 09:17:54.620 ,4,0,1.,0.8,0.,0.8,0.,0.8,17.,0.8
1979-03-10 09:17:55.420 ,4,0,2.,0.8,0.,0.8,0.,0.8,20.,0.8
1979-03-10 09:17:56.220 ,3,0,3.,0.8,0.,0.8,0.,0.8,18.,0.8
1979-03-10 09:17:57.020 ,3,0,4.,0.8,0.,0.8,0.,0.8,12.,0.8
1979-03-10 09:17:57.820 ,3,0,3.,0.8,0.,0.8,0.,0.8,18.,0.8
1979-03-10 09:17:58.620 ,3,0,4.,0.8,0.,0.8,0.,0.8,23.,0.8
1979-03-10 09:17:59.420 ,3,0,1.,0.8,0.,0.8,0.,0.8,25.,0.8
1979-03-10 09:18:00.220 ,3,0,2.,0.8,0.,0.8,0.,0.8,31.,0.8
1979-03-10 09:18:01.020 ,3,0,4.,0.8,0.,0.8,0.,0.8,21.,0.8
1979-03-10 09:18:01.820 ,3,0,4.,0.8,0.,0.8,0.,0.8,23.,0.8
1979-03-10 09:18:02.620 ,3,0,3.,0.8,0.,0.8,0.,0.8,17.,0.8
1979-03-10 09:18:03.420 ,3,0,3.,0.8,0.,0.8,0.,0.8,9.,0.8
1979-03-10 09:18:04.220 ,3,0,2.,0.8,0.,0.8,0.,0.8,13.,0.8
1979-03-10 09:18:05.020 ,3,0,1.,0.8,0.,0.8,0.,0.8,14.,0.8
1979-03-10 09:18:05.820 ,3,0,1.,0.8,0.,0.8,0.,0.8,13.,0.8
1979-03-10 09:18:06.620 ,3,0,3.,0.8,0.,0.8,0.,0.8,13.,0.8
1979-03-10 09:18:07.420 ,3,0,2.,0.8,0.,0.8,0.,0.8,9.,0.8
1979-03-10 09:18:08.220 ,3,0,1.,0.8,0.,0.8,0.,0.8,12.,0.8
1979-03-10 09:18:09.020 ,3,0,4.,0.8,0.,0.8,0.,0.8,14.,0.8
1979-03-10 09:18:09.820 ,3,0,0.,0.8,0.,0.8,0.,0.8,14.,0.8
1979-03-10 09:18:10.620 ,3,0,2.,0.8,0.,0.8,0.,0.8,16.,0.8
1979-03-10 09:18:11.420 ,3,0,1.,0.8,0.,0.8,0.,0.8,11.,0.8
1979-03-10 09:18:12.220 ,3,0,1.,0.8,0.,0.8,0.,0.8,12.,0.8
1979-03-10 09:18:13.020 ,3,0,2.,0.8,0.,0.8,0.,0.8,12.,0.8
1979-03-10 09:18:13.820 ,3,0,3.,0.8,0.,0.8,0.,0.8,11.,0.8
1979-03-10 09:18:14.620 ,3,0,4.,0.8,0.,0.8,0.,0.8,7.,0.8
1979-03-10 09:18:15.420 ,3,0,3.,0.8,0.,0.8,0.,0.8,14.,0.8
1979-03-10 09:18:16.220 ,3,0,3.,0.8,0.,0.8,0.,0.8,11.,0.8
1979-03-10 09:18:17.020 ,3,0,4.,0.8,0.,0.8,0.,0.8,15.,0.8
1979-03-10 09:18:17.820 ,3,0,2.,0.8,0.,0.8,0.,0.8,10.,0.8
1979-03-10 09:18:18.620 ,3,0,4.,0.8,0.,0.8,0.,0.8,22.,0.8
1979-03-10 09:18:19.420 ,3,0,1.,0.8,0.,0.8,0.,0.8,17.,0.8
1979-03-10 09:18:20.220 ,2,0,4.,0.8,0.,0.8,0.,0.8,12.,0.8
1979-03-10 09:18:21.020 ,2,0,3.,0.8,0.,0.8,0.,0.8,17.,0.8
1979-03-10 09:18:21.820 ,2,0,4.,0.8,0.,0.8,0.,0.8,18.,0.8
1979-03-10 09:18:22.620 ,2,0,2.,0.8,0.,0.8,0.,0.8,15.,0.8
1979-03-10 09:18:23.420 ,2,0,3.,0.8,0.,0.8,0.,0.8,13.,0.8
1979-03-10 09:18:24.220 ,2,0,2.,0.8,0.,0.8,0.,0.8,10.,0.8
1979-03-10 09:18:25.020 ,2,0,3.,0.8,0.,0.8,0.,0.8,10.,0.8
1979-03-10 09:18:25.820 ,2,0,3.,0.8,0.,0.8,0.,0.8,11.,0.8
1979-03-10 09:18:26.620 ,2,0,3.,0.8,0.,0.8,0.,0.8,14.,0.8
1979-03-10 09:18:27.420 ,2,0,3.,0.8,0.,0.8,0.,0.8,21.,0.8
1979-03-10 09:18:28.220 ,2,0,4.,0.8,0.,0.8,0.,0.8,15.,0.8
1979-03-10 09:18:29.020 ,2,0,3.,0.8,0.,0.8,0.,0.8,18.,0.8
1979-03-10 09:18:29.820 ,2,0,3.,0.8,0.,0.8,0.,0.8,18.,0.8
1979-03-10 09:18:30.620 ,2,0,3.,0.8,0.,0.8,0.,0.8,17.,0.8
1979-03-10 09:18:31.420 ,2,0,1.,0.8,0.,0.8,0.,0.8,15.,0.8
1979-03-10 09:18:32.220 ,2,0,2.,0.8,0.,0.8,0.,0.8,13.,0.8
1979-03-10 09:18:33.020 ,2,0,2.,0.8,0.,0.8,0.,0.8,23.,0.8
1979-03-10 09:18:33.820 ,2,0,4.,0.8,0.,0.8,0.,0.8,18.,0.8
1979-03-10 09:18:34.620 ,2,0,2.,0.8,0.,0.8,0.,0.8,24.,0.8
1979-03-10 09:18:35.420 ,2,0,1.,0.8,0.,0.8,0.,0.8,18.,0.8
1979-03-10 09:18:36.220 ,2,0,3.,0.8,0.,0.8,0.,0.8,18.,0.8
1979-03-10 09:18:37.020 ,2,0,4.,0.8,0.,0.8,0.,0.8,23.,0.8
1979-03-10 09:18:37.820 ,2,0,1.,0.8,0.,0.8,0.,0.8,17.,0.8
1979-03-10 09:18:38.620 ,2,0,3.,0.8,0.,0.8,0.,0.8,14.,0.8
1979-03-10 09:18:39.420 ,2,0,3.,0.8,0.,0.8,0.,0.8,15.,0.8
1979-03-10 09:18:40.220 ,2,0,2.,0.8,0.,0.8,0.,0.8,18.,0.8
1979-03-10 09:18:41.020 ,2,0,1.,0.8,0.,0.8,0.,0.8,19.,0.8
1979-03-10 09:18:41.820 ,2,0,2.,0.8,0.,0.8,0.,0.8,24.,0.8
1979-03-10 09:18:42.620 ,2,0,3.,0.8,0.,0.8,0.,0.8,22.,0.8
1979-03-10 09:18:43.420 ,2,0,4.,0.8,0.,0.8,0.,0.8,15.,0.8
1979-03-10 09:18:44.220 ,1,0,3.,0.8,0.,0.8,0.,0.8,12.,0.8
1979-03-10 09:18:45.020 ,1,0,2.,0.8,0.,0.8,0.,0.8,29.,0.8
1979-03-10 09:18:45.820 ,1,0,2.,0.8,0.,0.8,0.,0.8,20.,0.8
1979-03-10 09:18:46.620 ,1,0,2.,0.8,0.,0.8,0.,0.8,20.,0.8
1979-03-10 09:18:47.420 ,1,0,3.,0.8,0.,0.8,0.,0.8,21.,0.8
1979-03-10 09:18:48.220 ,1,0,3.,0.8,0.,0.8,0.,0.8,17.,0.8
1979-03-10 09:18:49.020 ,1,0,2.,0.8,0.,0.8,0.,0.8,19.,0.8
1979-03-10 09:18:49.820 ,1,0,1.,0.8,0.,0.8,0.,0.8,27.,0.8
1979-03-10 09:18:50.620 ,1,0,2.,0.8,0.,0.8,0.,0.8,23.,0.8
1979-03-10 09:18:51.420 ,1,0,1.,0.8,0.,0.8,0.,0.8,17.,0.8
1979-03-10 09:18:52.220 ,1,0,3.,0.8,0.,0.8,0.,0.8,15.,0.8
1979-03-10 09:18:53.020 ,1,0,3.,0.8,0.,0.8,0.,0.8,23.,0.8
1979-03-10 09:18:53.820 ,1,0,2.,0.8,0.,0.8,0.,0.8,16.,0.8
1979-03-10 09:18:54.620 ,1,0,2.,0.8,0.,0.8,0.,0.8,13.,0.8
1979-03-10 09:18:55.420 ,1,0,2.,0.8,0.,0.8,0.,0.8,24.,0.8
1979-03-10 09:18:56.220 ,1,0,4.,0.8,0.,0.8,0.,0.8,28.,0.8
1979-03-10 09:18:57.020 ,1,0,2.,0.8,0.,0.8,0.,0.8,19.,0.8
1979-03-10 09:18:57.820 ,1,0,1.,0.8,0.,0.8,0.,0.8,19.,0.8
1979-03-10 09:18:58.620 ,1,0,2.,0.8,0.,0.8,0.,0.8,16.,0.8
1979-03-10 09:18:59.420 ,1,0,4.,0.8,0.,0.8,0.,0.8,16.,0.8
1979-03-10 09:19:00.220 ,1,0,3.,0.8,0.,0.8,0.,0.8,14.,0.8
1979-03-10 09:19:01.020 ,1,0,3.,0.8,0.,0.8,0.,0.8,13.,0.8
1979-03-10 09:19:01.820 ,1,0,1.,0.8,0.,0.8,0.,0.8,33.,0.8
1979-03-10 09:19:02.620 ,1,0,2.,0.8,0.,0.8,0.,0.8,21.,0.8
1979-03-10 09:19:03.420 ,1,0,1.,0.8,0.,0.8,0.,0.8,20.,0.8
1979-03-10 09:19:04.220 ,1,0,4.,0.8,0.,0.8,0.,0.8,34.,0.8
1979-03-10 09:19:05.020 ,1,0,1.,0.8,0.,0.8,0.,0.8,26.,0.8
1979-03-10 09:19:05.820 ,1,0,1.,0.8,0.,0.8,0.,0.8,17.,0.8
1979-03-10 09:19:06.620 ,1,0,3.,0.8,0.,0.8,1.,0.8,31.,0.8
1979-03-10 09:19:07.420 ,1,0,3.,0.8,0.,0.8,0.,0.8,22.,0.8
1979-03-10 09:19:08.220 ,0,0,3.,0.8,0.,0.8,0.,0.8,20.,0.8
1979-03-10 09:19:09.020 ,0,0,3.,0.8,0.,0.8,0.,0.8,22.,0.8
1979-03-10 09:19:09.820 ,0,0,1.,0.8,0.,0.8,0.,0.8,19.,0.8
1979-03-10 09:19:10.620 ,0,0,3.,0.8,0.,0.8,0.,0.8,25.,0.8
1979-03-10 09:19:11.420 ,0,0,3.,0.8,0.,0.8,0.,0.8,22.,0.8
1979-03-10 09:19:12.220 ,0,0,2.,0.8,0.,0.8,0.,0.8,20.,0.8
1979-03-10 09:19:13.020 ,0,0,4.,0.8,0.,0.8,0.,0.8,19.,0.8
1979-03-10 09:19:13.820 ,0,0,1.,0.8,0.,0.8,0.,0.8,17.,0.8
1979-03-10 09:19:14.620 ,0,0,3.,0.8,0.,0.8,0.,0.8,20.,0.8
1979-03-10 09:19:15.420 ,0,0,3.,0.8,0.,0.8,0.,0.8,27.,0.8
1979-03-10 09:19:16.220 ,0,0,3.,0.8,0.,0.8,0.,0.8,13.,0.8
1979-03-10 09:19:17.020 ,0,0,2.,0.8,0.,0.8,0.,0.8,22.,0.8
1979-03-10 09:19:17.820 ,0,0,3.,0.8,0.,0.8,0.,0.8,24.,0.8
1979-03-10 09:19:18.620 ,0,0,1.,0.8,0.,0.8,0.,0.8,27.,0.8
1979-03-10 09:19:19.420 ,0,0,3.,0.8,0.,0.8,0.,0.8,27.,0.8
1979-03-10 09:19:20.220 ,0,0,1.,0.8,0.,0.8,0.,0.8,18.,0.8
1979-03-10 09:19:21.020 ,0,0,2.,0.8,0.,0.8,0.,0.8,26.,0.8
1979-03-10 09:19:21.820 ,0,0,2.,0.8,0.,0.8,0.,0.8,27.,0.8
1979-03-10 09:19:22.620 ,0,0,2.,0.8,0.,0.8,0.,0.8,23.,0.8
1979-03-10 09:19:23.420 ,0,0,3.,0.8,0.,0.8,0.,0.8,23.,0.8
1979-03-10 09:19:24.220 ,0,0,1.,0.8,0.,0.8,0.,0.8,20.,0.8
1979-03-10 09:19:25.020 ,0,0,4.,0.8,0.,0.8,0.,0.8,28.,0.8
1979-03-10 09:19:25.820 ,0,0,2.,0.8,0.,0.8,0.,0.8,24.,0.8
1979-03-10 09:19:26.620 ,0,0,0.,0.8,0.,0.8,0.,0.8,25.,0.8
1979-03-10 09:19:27.420 ,0,0,1.,0.8,0.,0.8,0.,0.8,29.,0.8
1979-03-10 09:19:28.220 ,0,0,2.,0.8,0.,0.8,0.,0.8,24.,0.8
1979-03-10 09:19:29.020 ,0,0,2.,0.8,0.,0.8,0.,0.8,26.,0.8
1979-03-10 09:19:29.820 ,0,0,1.,0.8,0.,0.8,0.,0.8,23.,0.8
1979-03-10 09:19:30.620 ,0,0,2.,0.8,0.,0.8,0.,0.8,33.,0.8
1979-03-10 09:19:31.420 ,0,0,1.,0.8,0.,0.8,0.,0.8,30.,0.8
1979-03-10 09:19:32.220 ,0,0,2.,0.8,0.,0.8,0.,0.8,29.,0.8
1979-03-10 09:19:33.020 ,0,0,1.,0.8,0.,0.8,0.,0.8,20.,0.8
1979-03-10 09:19:33.820 ,0,0,1.,0.8,0.,0.8,0.,0.8,26.,0.8
1979-03-10 09:19:34.620 ,0,0,1.,0.8,0.,0.8,0.,0.8,19.,0.8
1979-03-10 09:19:35.420 ,0,0,2.,0.8,0.,0.8,0.,0.8,33.,0.8
1979-03-10 09:19:36.220 ,0,0,1.,0.8,0.,0.8,0.,0.8,24.,0.8
1979-03-10 09:19:37.020 ,0,0,1.,0.8,0.,0.8,0.,0.8,16.,0.8
1979-03-10 09:19:37.820 ,0,0,2.,0.8,0.,0.8,0.,0.8,23.,0.8
1979-03-10 09:19:38.620 ,0,0,4.,0.8,0.,0.8,0.,0.8,25.,0.8
1979-03-10 09:19:39.420 ,0,0,0.,0.8,0.,0.8,0.,0.8,27.,0.8
1979-03-10 09:19:40.220 ,0,0,3.,0.8,0.,0.8,0.,0.8,25.,0.8
1979-03-10 09:19:41.020 ,0,0,3.,0.8,0.,0.8,0.,0.8,37.,0.8
1979-03-10 09:19:41.820 ,0,0,2.,0.8,0.,0.8,0.,0.8,29.,0.8
1979-03-10 09:19:42.620 ,0,0,1.,0.8,0.,0.8,0.,0.8,26.,0.8
1979-03-10 09:19:43.420 ,0,0,3.,0.8,0.,0.8,0.,0.8,30.,0.8
1979-03-10 09:19:44.220 ,0,0,2.,0.8,0.,0.8,0.,0.8,31.,0.8
1979-03-10 09:19:45.020 ,0,0,1.,0.8,0.,0.8,0.,0.8,29.,0.8